To NAV CANADA Home Page Login to a new session Search on AWWS site Feedback and Comments Disclaimer Vers la page française équivalente Tips FAQ What's new on the site To the Forecasts and Observations / NOTAM section To "File a Flight Plan" website Publications and other links Update of the User's profile FIC Telephone Numbers My Weather Data Folder Route Weather Data Regional Weather Data Local Weather Data To the Forecasts and Observations / NOTAM section
Request Generated 06/30/2015 at 05:12:06 UTC . Weather information available at that time is displayed.

METAR/TAF

OLD CROW/YT    

LWIS CYOC 300500Z AUTO 22002KT 19/11 A2988=
LWIS CYOC 300400Z AUTO 23005KT 200V260 20/10 A2988=
LWIS CYOC 300300Z AUTO 16002KT 19/09 A2988=

*** REMARK        : Forecast period has ended; this was the last TAF issued
*** REMARQUE : La période de prévision est échue; ceci était le dernier TAF qui a été émis
TAF AMD CYOC 292106Z 2918/3001 FCST CNCLD DUE NO OBS
RMK NXT FCST WILL BE ISSUED AT 301445Z=
Your time UTC time
Weather data provided by Environment Canada and NAV CANADA